Location: Buchloe
(48.0161°N, 10.7316°E)
Time: 04:10:15
(UTC+02:00)

ISS - Pass Details

Date: 10 July 2025
Orbit: 413 x 417 km, 51.6° (Epoch: 12 July)

Event Time Altitude Azimuth Distance (km) Brightness Sun altitude
Rises 01:11:43 0° 282° (WNW) 2,354 0.2 -19.7°
Reaches altitude 10° 01:13:53 10° 290° (WNW) 1,491 -0.7 -19.7°
Maximum altitude 01:17:06 43° 3° (N) 598 -2.5 -19.7°
Drops below altitude 10° 01:20:19 10° 77° (ENE) 1,493 -0.8 -19.8°
Sets 01:22:29 0° 84° (E) 2,356 0.1 -19.8°
